星链-31602 (STARLINK-31602 )

导读

STARLINK-31602是美国SpaceX公司于2024年3月11日发射的星链项目卫星,隶属于星链低轨互联网星座。该卫星采用Starlink v2.0 mini平台,运行在近地轨道,依托星链星座全球部署,旨在为偏远、基础设施匮乏地区提供高速低延迟宽带互联网服务,支撑视频通话、在线游戏等应用,是SpaceX搭建全球星链网络的重要组成部分。

基本信息
目录编号:
59202
目录名称:
STARLINK-31602
国际标识:
2024-046B
轨道中心:
EARTH
卫星名称:
星链-31602
卫星全名:
星链-31602 (STARLINK-31602 )
卫星状态:
在轨 (已飞行907 天)
发射日期:
2024-03-11 UTC
国别 :
美国 (US)
星等 :
--
轨道信息
数据来源 国际轨道数据
星历时间: 2026-09-03T04:59:22+0800
1天前
查看轨道信息
半长轴: 6840.86km
偏心率: 0.0001043
轨道倾角: 53.160°
近地点辐角 91.860°
升交点赤经 48.341°
平近点角 268.252°
近地点: 462.009km
远地点: 463.437km
周期: 93.848分钟
每日圈数: 15.343936
详细信息
固有亮度:
5
最大亮度:
0.3
卫星平台:
Starlink v2.0 mini
覆盖范围:
全球
运营商:
太空探索技术公司
运营商所在国:
美国
制造商(研发单位):
太空探索技术公司
制造商所在国:
美国
使用方式:
暂无
卫星简介
星链(Starlink)计划是由太空探索技术公司(SpaceX)提出的一个巨型低轨卫星互联网星座项目,计划在2019年至2024年间在太空搭建由约1.2万颗卫星组成的“星链”网络,其中1584颗将部署在地球上空550千米处的近地轨道,并从2020年开始工作。该卫星仍在工作。
2D轨道图
3D轨道图
轨道高度分析图
轨道倾角分析图
轨道综合分析图
查看轨道综合分析图
交会数据列表
事件ID 空间交会对象 最接近时刻(TCA) 交会距离 交会风险概率(CRP) 交会风险指数(CRI) 操作
CDM_260904-233705-920206-393621
2026-09-04T
23:37:50+0000
2.015 km
极远距离
2.558764E-6 低风险 0.43
CDM_260903-164005-188805-920223
2026-09-03T
16:40:35+0000
2.527 km
极远距离
1.47122E-6 低风险 0.38
CDM_260912-023705-270605-920221
2026-09-12T
02:37:25+0000
2.897 km
极远距离
2.27798E-7 极低风险 0.22